Time,TemperatureF,DewpointF,PressureIn,WindDirection,WindDirectionDegrees,WindSpeedMPH,WindSpeedGustMPH,Humidity,HourlyPrecipIn,Conditions,Clouds,dailyrainin,SoftwareType,DateUTC
2013-08-12 00:00:00,67.3,63.9,29.99,NE,51,1.0,1.0,89,0.00,,,0.00,Wunderground v.1.15,2013-08-12 05:00:00,
2013-08-12 00:10:00,66.7,63.4,29.99,NE,51,0.0,3.0,89,0.00,,,0.00,Wunderground v.1.15,2013-08-12 05:10:00,
2013-08-12 00:20:00,66.2,62.9,29.99,NE,51,0.0,3.0,89,0.00,,,0.00,Wunderground v.1.15,2013-08-12 05:20:00,
2013-08-12 00:30:00,66.2,63.2,30.00,NE,52,1.0,1.0,90,0.00,,,0.00,Wunderground v.1.15,2013-08-12 05:30:00,
2013-08-12 00:35:00,66.3,63.3,30.00,NE,52,0.0,3.0,90,0.00,,,0.00,Wunderground v.1.15,2013-08-12 05:35:00,
2013-08-12 00:45:00,66.2,63.2,30.00,NE,52,0.0,3.0,90,0.00,,,0.00,Wunderground v.1.15,2013-08-12 05:45:00,
2013-08-12 00:55:00,65.9,62.9,30.00,NE,52,0.0,3.0,90,0.00,,,0.00,Wunderground v.1.15,2013-08-12 05:55:00,
2013-08-12 01:05:00,65.9,62.9,30.00,NE,52,0.0,3.0,90,0.00,,,0.00,Wunderground v.1.15,2013-08-12 06:05:00,
2013-08-12 01:10:00,65.9,62.9,30.00,NE,52,0.0,3.0,90,0.00,,,0.00,Wunderground v.1.15,2013-08-12 06:10:00,
2013-08-12 01:20:00,65.6,62.6,29.99,NE,52,0.0,3.0,90,0.00,,,0.00,Wunderground v.1.15,2013-08-12 06:20:00,
2013-08-12 01:30:00,65.3,62.3,29.99,NE,52,0.0,3.0,90,0.00,,,0.00,Wunderground v.1.15,2013-08-12 06:30:00,
2013-08-12 01:40:00,64.9,61.9,29.99,NE,52,0.0,3.0,90,0.00,,,0.00,Wunderground v.1.15,2013-08-12 06:40:00,
2013-08-12 01:50:00,64.4,61.4,29.99,NE,52,0.0,3.0,90,0.00,,,0.00,Wunderground v.1.15,2013-08-12 06:50:00,
2013-08-12 01:55:00,63.8,60.5,29.99,NE,52,0.0,3.0,89,0.00,,,0.00,Wunderground v.1.15,2013-08-12 06:55:00,
2013-08-12 02:00:00,63.6,60.6,29.99,NE,52,0.0,3.0,90,0.00,,,0.00,Wunderground v.1.15,2013-08-12 07:00:00,
2013-08-12 02:10:00,63.5,60.5,29.99,NE,52,0.0,3.0,90,0.00,,,0.00,Wunderground v.1.15,2013-08-12 07:10:00,
2013-08-12 02:20:00,63.8,61.1,29.99,NE,52,0.0,3.0,91,0.00,,,0.00,Wunderground v.1.15,2013-08-12 07:20:00,
2013-08-12 02:30:00,64.0,61.0,29.98,NE,52,0.0,3.0,90,0.00,,,0.00,Wunderground v.1.15,2013-08-12 07:30:00,
2013-08-12 02:35:00,64.0,61.0,29.99,NE,52,0.0,3.0,90,0.00,,,0.00,Wunderground v.1.15,2013-08-12 07:35:00,
2013-08-12 02:45:00,63.7,61.0,29.99,NE,52,0.0,3.0,91,0.00,,,0.00,Wunderground v.1.15,2013-08-12 07:45:00,
2013-08-12 02:50:00,63.4,60.4,29.99,NE,52,0.0,3.0,90,0.00,,,0.00,Wunderground v.1.15,2013-08-12 07:50:00,
2013-08-12 03:00:00,63.4,60.7,29.99,NE,52,0.0,3.0,91,0.00,,,0.00,Wunderground v.1.15,2013-08-12 08:00:00,
2013-08-12 03:10:00,63.1,60.4,29.99,NE,52,0.0,3.0,91,0.00,,,0.00,Wunderground v.1.15,2013-08-12 08:10:00,
2013-08-12 03:20:00,62.7,60.0,29.99,NE,52,0.0,3.0,91,0.00,,,0.00,Wunderground v.1.15,2013-08-12 08:20:00,
2013-08-12 03:30:00,62.3,59.6,29.99,NE,52,0.0,3.0,91,0.00,,,0.00,Wunderground v.1.15,2013-08-12 08:30:00,
2013-08-12 03:40:00,62.4,59.7,29.99,NE,52,0.0,3.0,91,0.00,,,0.00,Wunderground v.1.15,2013-08-12 08:40:00,
2013-08-12 03:45:00,62.3,59.6,29.99,NE,52,0.0,3.0,91,0.00,,,0.00,Wunderground v.1.15,2013-08-12 08:45:00,
2013-08-12 03:55:00,62.1,59.4,29.99,NE,52,0.0,3.0,91,0.00,,,0.00,Wunderground v.1.15,2013-08-12 08:55:00,
2013-08-12 04:00:00,62.1,59.4,29.99,NE,52,0.0,3.0,91,0.00,,,0.00,Wunderground v.1.15,2013-08-12 09:00:00,
2013-08-12 04:10:00,62.0,59.3,29.99,NE,52,0.0,3.0,91,0.00,,,0.00,Wunderground v.1.15,2013-08-12 09:10:00,
2013-08-12 04:20:00,62.0,59.3,30.00,NE,52,0.0,3.0,91,0.00,,,0.00,Wunderground v.1.15,2013-08-12 09:20:00,
2013-08-12 04:30:00,61.9,59.2,30.00,NE,52,0.0,3.0,91,0.00,,,0.00,Wunderground v.1.15,2013-08-12 09:30:00,
2013-08-12 04:40:00,62.0,59.3,30.00,NE,52,0.0,3.0,91,0.00,,,0.00,Wunderground v.1.15,2013-08-12 09:40:00,
2013-08-12 04:45:00,62.0,59.3,30.00,NE,52,0.0,3.0,91,0.00,,,0.00,Wunderground v.1.15,2013-08-12 09:45:00,
2013-08-12 04:50:00,62.2,59.5,30.00,NE,52,0.0,3.0,91,0.00,,,0.00,Wunderground v.1.15,2013-08-12 09:50:00,
2013-08-12 05:00:00,62.2,59.5,30.00,NE,52,0.0,3.0,91,0.00,,,0.00,Wunderground v.1.15,2013-08-12 10:00:00,
2013-08-12 05:10:00,62.0,59.3,29.99,NE,52,0.0,3.0,91,0.00,,,0.00,Wunderground v.1.15,2013-08-12 10:10:00,
2013-08-12 05:20:00,62.7,60.3,29.99,NNE,22,1.0,3.0,92,0.00,,,0.00,Wunderground v.1.15,2013-08-12 10:20:00,
2013-08-12 05:25:00,63.0,60.6,29.99,NNE,20,1.0,3.0,92,0.00,,,0.00,Wunderground v.1.15,2013-08-12 10:25:00,
2013-08-12 05:35:00,62.9,60.5,30.00,NNE,20,1.0,3.0,92,0.00,,,0.00,Wunderground v.1.15,2013-08-12 10:35:00,
2013-08-12 05:40:00,62.8,60.1,30.00,NNE,20,0.0,3.0,91,0.00,,,0.00,Wunderground v.1.15,2013-08-12 10:40:00,
2013-08-12 05:50:00,63.0,60.6,30.00,NNE,20,1.0,1.0,92,0.00,,,0.00,Wunderground v.1.15,2013-08-12 10:50:00,
2013-08-12 06:00:00,62.6,60.2,30.00,NNE,20,0.0,0.0,92,0.00,,,0.00,Wunderground v.1.15,2013-08-12 11:00:00,
2013-08-12 06:10:00,62.5,60.1,30.00,NNE,20,0.0,3.0,92,0.00,,,0.00,Wunderground v.1.15,2013-08-12 11:10:00,
2013-08-12 06:20:00,62.7,60.3,30.00,NNE,20,0.0,3.0,92,0.00,,,0.00,Wunderground v.1.15,2013-08-12 11:20:00,
2013-08-12 06:30:00,62.7,60.3,30.01,NNE,20,0.0,3.0,92,0.00,,,0.00,Wunderground v.1.15,2013-08-12 11:30:00,
2013-08-12 06:40:00,63.2,60.8,30.01,ENE,63,1.0,3.0,92,0.00,,,0.00,Wunderground v.1.15,2013-08-12 11:40:00,
2013-08-12 06:45:00,63.7,61.3,30.01,ENE,74,2.0,3.0,92,0.00,,,0.00,Wunderground v.1.15,2013-08-12 11:45:00,
2013-08-12 06:50:00,63.9,61.5,30.01,ENE,74,3.0,3.0,92,0.00,,,0.00,Wunderground v.1.15,2013-08-12 11:50:00,
2013-08-12 07:00:00,64.0,61.6,30.01,ENE,70,3.0,3.0,92,0.00,,,0.00,Wunderground v.1.15,2013-08-12 12:00:00,
2013-08-12 07:10:00,64.1,61.7,30.01,ENE,69,2.0,3.0,92,0.00,,,0.00,Wunderground v.1.15,2013-08-12 12:10:00,
2013-08-12 07:20:00,64.1,61.7,30.01,ENE,75,2.0,3.0,92,0.00,,,0.00,Wunderground v.1.15,2013-08-12 12:20:00,
2013-08-12 07:30:00,64.1,61.7,30.01,ENE,73,1.0,3.0,92,0.00,,,0.00,Wunderground v.1.15,2013-08-12 12:30:00,
2013-08-12 07:40:00,64.1,61.7,30.01,ENE,73,2.0,2.0,92,0.00,,,0.00,Wunderground v.1.15,2013-08-12 12:40:00,
2013-08-12 07:50:00,64.4,62.0,30.01,ENE,73,1.0,1.0,92,0.00,,,0.00,Wunderground v.1.15,2013-08-12 12:50:00,
2013-08-12 07:55:00,64.5,62.1,30.01,ENE,74,1.0,3.0,92,0.00,,,0.00,Wunderground v.1.15,2013-08-12 12:55:00,
2013-08-12 08:05:00,64.5,62.1,30.01,ENE,73,1.0,3.0,92,0.00,,,0.00,Wunderground v.1.15,2013-08-12 13:05:00,
2013-08-12 08:10:00,64.7,62.3,30.02,ENE,78,1.0,3.0,92,0.00,,,0.00,Wunderground v.1.15,2013-08-12 13:10:00,
2013-08-12 08:20:00,65.2,62.8,30.01,ENE,78,2.0,3.0,92,0.00,,,0.00,Wunderground v.1.15,2013-08-12 13:20:00,
2013-08-12 08:30:00,65.8,63.4,30.02,ENE,77,2.0,3.0,92,0.00,,,0.00,Wunderground v.1.15,2013-08-12 13:30:00,
2013-08-12 08:40:00,66.1,63.7,30.02,ENE,65,1.0,4.0,92,0.00,,,0.00,Wunderground v.1.15,2013-08-12 13:40:00,
2013-08-12 08:45:00,66.3,63.9,30.02,East,79,2.0,4.0,92,0.00,,,0.00,Wunderground v.1.15,2013-08-12 13:45:00,
2013-08-12 08:50:00,66.8,64.7,30.02,East,84,2.0,3.0,93,0.00,,,0.00,Wunderground v.1.15,2013-08-12 13:50:00,
2013-08-12 09:00:00,66.9,64.5,30.02,ENE,77,3.0,4.0,92,0.00,,,0.01,Wunderground v.1.15,2013-08-12 14:00:00,
2013-08-12 09:10:00,68.1,66.0,30.03,East,94,2.0,2.0,93,0.00,,,0.01,Wunderground v.1.15,2013-08-12 14:10:00,
2013-08-12 09:20:00,68.2,65.8,30.03,East,86,3.0,3.0,92,0.00,,,0.01,Wunderground v.1.15,2013-08-12 14:20:00,
2013-08-12 09:30:00,68.9,66.5,30.03,ESE,111,2.0,3.0,92,0.00,,,0.01,Wunderground v.1.15,2013-08-12 14:30:00,
2013-08-12 09:35:00,69.5,67.1,30.04,ESE,112,2.0,3.0,92,0.00,,,0.01,Wunderground v.1.15,2013-08-12 14:35:00,
2013-08-12 09:45:00,70.1,67.0,30.04,SE,143,2.0,4.0,90,0.00,,,0.01,Wunderground v.1.15,2013-08-12 14:45:00,
2013-08-12 09:50:00,70.4,67.0,30.04,SE,142,2.0,2.0,89,0.00,,,0.01,Wunderground v.1.15,2013-08-12 14:50:00,
2013-08-12 10:00:00,71.3,66.9,30.04,East,92,2.0,2.0,86,0.00,,,0.01,Wunderground v.1.15,2013-08-12 15:00:00,
2013-08-12 10:10:00,72.1,67.0,30.04,ENE,65,2.0,5.0,84,0.00,,,0.01,Wunderground v.1.15,2013-08-12 15:10:00,
2013-08-12 10:20:00,73.0,66.8,30.04,East,82,3.0,3.0,81,0.00,,,0.01,Wunderground v.1.15,2013-08-12 15:20:00,
2013-08-12 10:30:00,73.2,65.6,30.05,ENE,59,4.0,6.0,77,0.00,,,0.01,Wunderground v.1.15,2013-08-12 15:30:00,
2013-08-12 10:35:00,73.6,65.6,30.05,ESE,116,4.0,6.0,76,0.00,,,0.01,Wunderground v.1.15,2013-08-12 15:35:00,
2013-08-12 10:40:00,73.7,64.9,30.05,East,91,3.0,7.0,74,0.00,,,0.01,Wunderground v.1.15,2013-08-12 15:40:00,
2013-08-12 10:50:00,74.2,65.0,30.05,East,87,4.0,4.0,73,0.00,,,0.01,Wunderground v.1.15,2013-08-12 15:50:00,
2013-08-12 11:00:00,75.3,66.0,30.05,ESE,120,2.0,4.0,73,0.00,,,0.01,Wunderground v.1.15,2013-08-12 16:00:00,
2013-08-12 11:10:00,75.8,65.3,30.05,ESE,109,3.0,4.0,70,0.00,,,0.01,Wunderground v.1.15,2013-08-12 16:10:00,
2013-08-12 11:15:00,75.7,64.8,30.05,ESE,115,4.0,5.0,69,0.00,,,0.01,Wunderground v.1.15,2013-08-12 16:15:00,
2013-08-12 11:20:00,75.6,64.3,30.05,ENE,72,5.0,5.0,68,0.00,,,0.01,Wunderground v.1.15,2013-08-12 16:20:00,
2013-08-12 11:30:00,75.7,64.4,30.05,East,83,5.0,5.0,68,0.00,,,0.01,Wunderground v.1.15,2013-08-12 16:30:00,
2013-08-12 11:40:00,75.9,63.7,30.05,East,84,5.0,5.0,66,0.00,,,0.01,Wunderground v.1.15,2013-08-12 16:40:00,
2013-08-12 11:50:00,76.3,63.2,30.05,East,95,5.0,5.0,64,0.00,,,0.01,Wunderground v.1.15,2013-08-12 16:50:00,
2013-08-12 11:55:00,76.3,62.8,30.04,ENE,71,4.0,5.0,63,0.00,,,0.01,Wunderground v.1.15,2013-08-12 16:55:00,
2013-08-12 12:05:00,77.0,64.3,30.05,East,99,5.0,9.0,65,0.00,,,0.01,Wunderground v.1.15,2013-08-12 17:05:00,
2013-08-12 12:10:00,77.3,62.3,30.05,East,98,4.0,4.0,60,0.00,,,0.01,Wunderground v.1.15,2013-08-12 17:10:00,
2013-08-12 12:20:00,77.9,62.9,30.05,East,87,4.0,9.0,60,0.00,,,0.01,Wunderground v.1.15,2013-08-12 17:20:00,
2013-08-12 12:30:00,78.2,63.6,30.05,East,91,4.0,9.0,61,0.00,,,0.01,Wunderground v.1.15,2013-08-12 17:30:00,
2013-08-12 12:40:00,78.2,62.7,30.04,ENE,77,5.0,9.0,59,0.00,,,0.01,Wunderground v.1.15,2013-08-12 17:40:00,
2013-08-12 12:50:00,78.5,62.0,30.04,East,97,4.0,9.0,57,0.00,,,0.01,Wunderground v.1.15,2013-08-12 17:50:00,
2013-08-12 13:00:00,78.9,62.4,30.03,East,101,4.0,9.0,57,0.00,,,0.01,Wunderground v.1.15,2013-08-12 18:00:00,
2013-08-12 13:10:00,79.6,63.5,30.03,SSE,166,4.0,4.0,58,0.00,,,0.01,Wunderground v.1.15,2013-08-12 18:10:00,
2013-08-12 13:20:00,79.2,62.7,30.03,ESE,103,5.0,5.0,57,0.00,,,0.01,Wunderground v.1.15,2013-08-12 18:20:00,
2013-08-12 13:30:00,79.5,59.8,30.04,East,91,5.0,9.0,51,0.00,,,0.01,Wunderground v.1.15,2013-08-12 18:30:00,
2013-08-12 13:35:00,79.6,60.4,30.04,ENE,74,4.0,9.0,52,0.00,,,0.01,Wunderground v.1.15,2013-08-12 18:35:00,
2013-08-12 13:45:00,79.6,61.0,30.03,ENE,78,4.0,9.0,53,0.00,,,0.01,Wunderground v.1.15,2013-08-12 18:45:00,
2013-08-12 13:50:00,79.6,59.9,30.03,ENE,69,4.0,4.0,51,0.00,,,0.01,Wunderground v.1.15,2013-08-12 18:50:00,
2013-08-12 14:00:00,80.5,60.1,30.03,East,84,3.0,9.0,50,0.00,,,0.01,Wunderground v.1.15,2013-08-12 19:00:00,
2013-08-12 14:10:00,80.9,59.4,30.03,SE,130,3.0,3.0,48,0.00,,,0.01,Wunderground v.1.15,2013-08-12 19:10:00,
2013-08-12 14:20:00,81.0,62.8,30.03,East,84,3.0,9.0,54,0.00,,,0.01,Wunderground v.1.15,2013-08-12 19:20:00,
2013-08-12 14:30:00,80.2,61.5,30.03,ENE,78,4.0,4.0,53,0.00,,,0.01,Wunderground v.1.15,2013-08-12 19:30:00,
2013-08-12 14:40:00,80.5,62.3,30.03,East,82,4.0,9.0,54,0.00,,,0.01,Wunderground v.1.15,2013-08-12 19:40:00,
2013-08-12 14:45:00,80.4,61.7,30.03,NNE,15,5.0,9.0,53,0.00,,,0.01,Wunderground v.1.15,2013-08-12 19:45:00,
2013-08-12 14:50:00,80.5,62.3,30.02,ENE,58,4.0,9.0,54,0.00,,,0.01,Wunderground v.1.15,2013-08-12 19:50:00,
2013-08-12 15:00:00,80.2,61.0,30.02,ENE,63,4.0,4.0,52,0.00,,,0.01,Wunderground v.1.15,2013-08-12 20:00:00,
2013-08-12 15:10:00,80.5,59.0,30.02,ESE,114,4.0,4.0,48,0.00,,,0.01,Wunderground v.1.15,2013-08-12 20:10:00,
2013-08-12 15:20:00,80.9,63.2,30.02,ESE,103,2.0,9.0,55,0.00,,,0.01,Wunderground v.1.15,2013-08-12 20:20:00,
2013-08-12 15:30:00,81.0,61.7,30.01,North,5,3.0,9.0,52,0.00,,,0.01,Wunderground v.1.15,2013-08-12 20:30:00,
2013-08-12 15:35:00,81.0,61.2,30.02,ENE,59,3.0,9.0,51,0.00,,,0.01,Wunderground v.1.15,2013-08-12 20:35:00,
2013-08-12 15:40:00,80.5,62.8,30.01,NE,36,3.0,3.0,55,0.00,,,0.01,Wunderground v.1.15,2013-08-12 20:40:00,
2013-08-12 15:50:00,80.3,63.2,30.01,ENE,78,3.0,3.0,56,0.00,,,0.01,Wunderground v.1.15,2013-08-12 20:50:00,
2013-08-12 16:00:00,80.1,63.0,30.01,ENE,67,4.0,9.0,56,0.00,,,0.01,Wunderground v.1.15,2013-08-12 21:00:00,
2013-08-12 16:10:00,79.9,62.3,30.00,NNE,22,3.0,3.0,55,0.00,,,0.01,Wunderground v.1.15,2013-08-12 21:10:00,
2013-08-12 16:15:00,79.9,63.3,30.00,ENE,61,3.0,9.0,57,0.00,,,0.01,Wunderground v.1.15,2013-08-12 21:15:00,
2013-08-12 16:25:00,79.8,62.7,30.00,ENE,68,4.0,9.0,56,0.00,,,0.01,Wunderground v.1.15,2013-08-12 21:25:00,
2013-08-12 16:30:00,79.7,62.6,30.00,East,86,4.0,9.0,56,0.00,,,0.01,Wunderground v.1.15,2013-08-12 21:30:00,
2013-08-12 16:40:00,79.4,61.8,30.00,ENE,76,4.0,4.0,55,0.00,,,0.01,Wunderground v.1.15,2013-08-12 21:40:00,
2013-08-12 16:50:00,79.6,63.0,30.00,ENE,67,3.0,9.0,57,0.00,,,0.01,Wunderground v.1.15,2013-08-12 21:50:00,
2013-08-12 17:00:00,79.6,61.5,30.00,East,80,3.0,3.0,54,0.00,,,0.01,Wunderground v.1.15,2013-08-12 22:00:00,
2013-08-12 17:05:00,79.6,62.5,30.00,ENE,68,3.0,4.0,56,0.00,,,0.01,Wunderground v.1.15,2013-08-12 22:05:00,
2013-08-12 17:15:00,79.5,62.4,30.00,East,82,3.0,9.0,56,0.00,,,0.01,Wunderground v.1.15,2013-08-12 22:15:00,
2013-08-12 17:20:00,79.4,61.3,30.00,East,85,3.0,3.0,54,0.00,,,0.01,Wunderground v.1.15,2013-08-12 22:20:00,
2013-08-12 17:30:00,79.2,62.1,29.99,ENE,57,3.0,3.0,56,0.00,,,0.01,Wunderground v.1.15,2013-08-12 22:30:00,
2013-08-12 17:40:00,78.8,62.3,29.99,ENE,73,4.0,4.0,57,0.00,,,0.01,Wunderground v.1.15,2013-08-12 22:40:00,
2013-08-12 17:45:00,78.7,63.2,29.99,ENE,58,4.0,9.0,59,0.00,,,0.01,Wunderground v.1.15,2013-08-12 22:45:00,
2013-08-12 17:55:00,78.4,62.9,29.99,ENE,73,4.0,6.0,59,0.00,,,0.01,Wunderground v.1.15,2013-08-12 22:55:00,
2013-08-12 18:00:00,78.3,62.8,29.99,ENE,76,5.0,5.0,59,0.00,,,0.01,Wunderground v.1.15,2013-08-12 23:00:00,
2013-08-12 18:10:00,78.0,62.5,29.99,ENE,70,4.0,7.0,59,0.00,,,0.01,Wunderground v.1.15,2013-08-12 23:10:00,
2013-08-12 18:20:00,77.6,63.1,29.99,East,81,5.0,5.0,61,0.00,,,0.01,Wunderground v.1.15,2013-08-12 23:20:00,
2013-08-12 18:30:00,77.1,63.5,29.99,ENE,71,5.0,5.0,63,0.00,,,0.01,Wunderground v.1.15,2013-08-12 23:30:00,
2013-08-12 18:35:00,76.9,63.8,29.99,ENE,74,5.0,7.0,64,0.00,,,0.01,Wunderground v.1.15,2013-08-12 23:35:00,
2013-08-12 18:45:00,76.4,64.2,29.99,ENE,59,5.0,7.0,66,0.00,,,0.01,Wunderground v.1.15,2013-08-12 23:45:00,
2013-08-12 18:50:00,76.1,64.3,29.99,East,84,5.0,5.0,67,0.00,,,0.01,Wunderground v.1.15,2013-08-12 23:50:00,
2013-08-12 19:00:00,75.7,64.4,29.99,East,94,4.0,7.0,68,0.00,,,0.01,Wunderground v.1.15,2013-08-13 00:00:00,
2013-08-12 19:10:00,75.1,63.4,29.99,East,81,5.0,7.0,67,0.00,,,0.01,Wunderground v.1.15,2013-08-13 00:10:00,
2013-08-12 19:20:00,74.6,63.3,29.99,ENE,76,5.0,5.0,68,0.00,,,0.01,Wunderground v.1.15,2013-08-13 00:20:00,
2013-08-12 19:25:00,74.3,63.1,29.99,ENE,63,5.0,6.0,68,0.00,,,0.01,Wunderground v.1.15,2013-08-13 00:25:00,
2013-08-12 19:35:00,73.8,63.0,29.99,ENE,69,4.0,7.0,69,0.00,,,0.01,Wunderground v.1.15,2013-08-13 00:35:00,
2013-08-12 19:40:00,73.5,63.1,29.99,East,82,4.0,4.0,70,0.00,,,0.01,Wunderground v.1.15,2013-08-13 00:40:00,
2013-08-12 19:50:00,72.9,62.9,30.00,ENE,78,4.0,7.0,71,0.00,,,0.01,Wunderground v.1.15,2013-08-13 00:50:00,
2013-08-12 20:00:00,72.1,63.0,30.00,East,80,3.0,7.0,73,0.00,,,0.01,Wunderground v.1.15,2013-08-13 01:00:00,
2013-08-12 20:10:00,71.2,62.9,30.00,East,80,2.0,7.0,75,0.00,,,0.01,Wunderground v.1.15,2013-08-13 01:10:00,
2013-08-12 20:15:00,70.8,62.9,30.00,East,80,2.0,7.0,76,0.00,,,0.01,Wunderground v.1.15,2013-08-13 01:15:00,
2013-08-12 20:20:00,70.5,62.9,30.01,East,80,1.0,7.0,77,0.00,,,0.01,Wunderground v.1.15,2013-08-13 01:20:00,
2013-08-12 20:30:00,70.0,63.2,30.01,East,80,1.0,1.0,79,0.00,,,0.01,Wunderground v.1.15,2013-08-13 01:30:00,
2013-08-12 20:40:00,69.3,62.9,30.01,East,80,0.0,7.0,80,0.00,,,0.01,Wunderground v.1.15,2013-08-13 01:40:00,
2013-08-12 20:50:00,68.4,62.0,30.02,East,80,0.0,7.0,80,0.00,,,0.01,Wunderground v.1.15,2013-08-13 01:50:00,
2013-08-12 20:55:00,68.0,61.9,30.02,ENE,78,1.0,7.0,81,0.00,,,0.01,Wunderground v.1.15,2013-08-13 01:55:00,
2013-08-12 21:00:00,67.6,61.6,30.02,East,82,2.0,7.0,81,0.00,,,0.01,Wunderground v.1.15,2013-08-13 02:00:00,
2013-08-12 21:10:00,67.1,61.4,30.02,East,81,2.0,2.0,82,0.00,,,0.01,Wunderground v.1.15,2013-08-13 02:10:00,
2013-08-12 21:20:00,66.5,61.2,30.03,East,81,1.0,1.0,83,0.00,,,0.01,Wunderground v.1.15,2013-08-13 02:20:00,
2013-08-12 21:30:00,66.0,60.7,30.04,East,81,0.0,7.0,83,0.00,,,0.01,Wunderground v.1.15,2013-08-13 02:30:00,
2013-08-12 21:35:00,66.0,61.0,30.04,East,81,0.0,7.0,84,0.00,,,0.01,Wunderground v.1.15,2013-08-13 02:35:00,
2013-08-12 21:45:00,66.2,61.2,30.04,East,81,1.0,7.0,84,0.00,,,0.01,Wunderground v.1.15,2013-08-13 02:45:00,
2013-08-12 21:50:00,66.1,61.1,30.04,East,81,1.0,1.0,84,0.00,,,0.01,Wunderground v.1.15,2013-08-13 02:50:00,
2013-08-12 22:00:00,66.0,61.0,30.04,East,81,0.0,7.0,84,0.00,,,0.01,Wunderground v.1.15,2013-08-13 03:00:00,
2013-08-12 22:10:00,65.6,61.0,30.04,East,88,1.0,7.0,85,0.00,,,0.01,Wunderground v.1.15,2013-08-13 03:10:00,
2013-08-12 22:20:00,65.6,60.6,30.04,East,88,1.0,1.0,84,0.00,,,0.01,Wunderground v.1.15,2013-08-13 03:20:00,
2013-08-12 22:30:00,65.3,60.7,30.05,East,88,0.0,7.0,85,0.00,,,0.01,Wunderground v.1.15,2013-08-13 03:30:00,
2013-08-12 22:35:00,65.4,60.8,30.05,East,88,0.0,7.0,85,0.00,,,0.01,Wunderground v.1.15,2013-08-13 03:35:00,
2013-08-12 22:40:00,65.1,60.5,30.05,East,88,0.0,7.0,85,0.00,,,0.01,Wunderground v.1.15,2013-08-13 03:40:00,
2013-08-12 22:55:00,64.4,60.1,30.05,East,88,0.0,7.0,86,0.00,,,0.01,Wunderground v.1.15,2013-08-13 03:55:00,
2013-08-12 23:00:00,64.7,60.4,30.05,East,88,0.0,7.0,86,0.00,,,0.01,Wunderground v.1.15,2013-08-13 04:00:00,
2013-08-12 23:05:00,64.8,60.5,30.06,East,88,1.0,7.0,86,0.00,,,0.01,Wunderground v.1.15,2013-08-13 04:05:00,
2013-08-12 23:10:00,64.6,60.3,30.06,East,88,1.0,1.0,86,0.00,,,0.01,Wunderground v.1.15,2013-08-13 04:10:00,
2013-08-12 23:15:00,64.3,60.0,30.06,East,88,0.0,7.0,86,0.00,,,0.01,Wunderground v.1.15,2013-08-13 04:15:00,
2013-08-12 23:20:00,64.0,59.7,30.06,East,88,0.0,7.0,86,0.00,,,0.01,Wunderground v.1.15,2013-08-13 04:20:00,
2013-08-12 23:25:00,63.7,59.8,30.06,East,88,0.0,7.0,87,0.00,,,0.01,Wunderground v.1.15,2013-08-13 04:25:00,
2013-08-12 23:35:00,63.9,60.0,30.05,East,88,0.0,7.0,87,0.00,,,0.01,Wunderground v.1.15,2013-08-13 04:35:00,
2013-08-12 23:45:00,63.7,59.8,30.05,East,88,0.0,7.0,87,0.00,,,0.01,Wunderground v.1.15,2013-08-13 04:45:00,
2013-08-12 23:50:00,63.5,59.6,30.05,East,88,0.0,7.0,87,0.00,,,0.01,Wunderground v.1.15,2013-08-13 04:50:00,